Terug naar catalogus

CZ-6A DEB

ActiefPO
NORAD 60633·DEBRIS·🇨🇳 China

Gelanceerd Aug 6, 2024 vanaf Taiyuan Satellite Launch Center

Loading…

Volgende Passages (komende 24 uur)

TLE

VersSource: Space-Track

Epoch: Sep 14, 2026, 11:07 UTC

1 60633U 24140AJ  26257.46381586  .00000234  00000-0  10823-3 0  9998
2 60633  89.0134 266.6923 0054935 257.7903 101.7130 14.16974904108645

Volg CZ-6A DEB in realtime met AllMySat

Download on the App Store